Glenwood, MN

1:12 AM CDT on June 23, 2017 (GMT -0500)
Glenwood Municipal

Weather History for KGHW - March, 2014

Change the Weather History Date:

Saturday, March 8, 2014

  Actual Average Record
Temperature  
Mean Temperature 14 °F -  
Max Temperature 24 °F 31 °F 60 °F (1987)
Min Temperature 3 °F 13 °F -12 °F (1951)
Degree Days  
Heating Degree Days 52    
Moisture  
Dew Point 9 °F    
Average Humidity 82    
Maximum Humidity 93    
Minimum Humidity 63    
Precipitation  
Precipitation 0.00 in - - ()
Sea Level Pressure  
Sea Level Pressure 30.24 in    
Wind  
Wind Speed 6 mph (WSW)    
Max Wind Speed 16 mph    
Max Gust Speed -    
Visibility 10 miles    
Events      
Averages and records for this station are not official NWS values.
T = Trace of Precipitation, MM = Missing Value Source: NWS Daily Summary

Daily Weather History Graph

Daily Weather History Graph

Search for Another Location

Airport or City:

Trip Planner

Search our weather history database for the weather conditions in past years. The results will help you decide how hot, cold, wet, or windy it might be!

Date:

Astronomy

Mar. 08, 2014 Rise Set
Actual Time 6:46 AM CST 6:17 PM CST
Civil Twilight 6:17 AM CST 6:47 PM CST
Nautical Twilight 5:43 AM CST 7:21 PM CST
Astronomical Twilight 5:08 AM CST 7:56 PM CST
Moon 11:10 AM CST (3/8) 1:35 AM CST (3/8)
Length of Visible Light 12h 30m
Length of Day
11h 30m
First Quarter, 52% of the Moon is Illuminated
Mar 8
First Quarter
Mar 16
Full
Mar 23
Last Quarter
Mar 30
New
Apr 7
First Quarter

Hourly Weather History & Observations

Time (CST) Temp. Windchill Dew Point Humidity Pressure Visibility Wind Dir Wind Speed Gust Speed Precip Events Conditions
12:13 AM 8.6 °F - 6.8 °F 92% 30.24 in 10.0 mi Calm Calm - N/A   Clear
12:33 AM 8.6 °F 0.1 °F 5.0 °F 85% 30.24 in 10.0 mi NW 4.6 mph - N/A   Clear
12:54 AM 6.8 °F -3.5 °F 3.2 °F 85% 30.24 in 10.0 mi NW 5.8 mph - N/A   Clear
1:13 AM 6.8 °F -3.5 °F 5.0 °F 92% 30.25 in 10.0 mi NW 5.8 mph - N/A   Clear
1:33 AM 6.8 °F -3.5 °F 3.2 °F 85% 30.26 in 10.0 mi NW 5.8 mph - N/A   Clear
1:53 AM 3.2 °F -7.8 °F 1.4 °F 92% 30.27 in 10.0 mi NW 5.8 mph - N/A   Clear
2:13 AM 5.0 °F -9.1 °F 1.4 °F 85% 30.26 in 10.0 mi NW 9.2 mph - N/A   Clear
2:34 AM 3.2 °F -11.3 °F 1.4 °F 92% 30.27 in 10.0 mi WNW 9.2 mph - N/A   Clear
2:53 AM 5.0 °F -9.1 °F 1.4 °F 85% 30.27 in 10.0 mi WNW 9.2 mph - N/A   Clear
3:13 AM 5.0 °F -9.1 °F 3.2 °F 92% 30.27 in 10.0 mi WNW 9.2 mph - N/A   Clear
3:33 AM 5.0 °F -5.6 °F 1.4 °F 85% 30.27 in 10.0 mi NW 5.8 mph - N/A   Clear
3:53 AM 5.0 °F -6.9 °F 1.4 °F 85% 30.27 in 10.0 mi NNW 6.9 mph - N/A   Scattered Clouds
4:14 AM 5.0 °F -6.9 °F 1.4 °F 85% 30.27 in 10.0 mi NNW 6.9 mph - N/A   Mostly Cloudy
4:33 AM 6.8 °F -5.9 °F 3.2 °F 85% 30.26 in 10.0 mi NNW 8.1 mph - N/A   Overcast
4:53 AM 6.8 °F -5.9 °F 3.2 °F 85% 30.27 in 10.0 mi NNW 8.1 mph - N/A   Mostly Cloudy
5:13 AM 6.8 °F -6.9 °F 3.2 °F 85% 30.28 in 10.0 mi NNW 9.2 mph - N/A   Scattered Clouds
5:33 AM 6.8 °F -4.8 °F 3.2 °F 85% 30.28 in 10.0 mi North 6.9 mph - N/A   Clear
5:54 AM 6.8 °F -6.9 °F 3.2 °F 85% 30.28 in 10.0 mi North 9.2 mph - N/A   Clear
6:13 AM 6.8 °F -7.8 °F 3.2 °F 85% 30.28 in 10.0 mi North 10.4 mph - N/A   Clear
6:33 AM 6.8 °F -2.0 °F 3.2 °F 85% 30.28 in 10.0 mi North 4.6 mph - N/A   Scattered Clouds
6:53 AM 6.8 °F -2.0 °F 3.2 °F 85% 30.28 in 10.0 mi North 4.6 mph - N/A   Mostly Cloudy
7:13 AM 6.8 °F -3.5 °F 3.2 °F 85% 30.28 in 10.0 mi North 5.8 mph - N/A   Scattered Clouds
7:33 AM 3.2 °F -4.2 °F 1.4 °F 92% 30.30 in 10.0 mi NNW 3.5 mph - N/A   Scattered Clouds
7:53 AM 6.8 °F -3.5 °F 3.2 °F 85% 30.30 in 10.0 mi NNW 5.8 mph - N/A   Mostly Cloudy
8:13 AM 8.6 °F -1.3 °F 3.2 °F 79% 30.31 in 10.0 mi NNW 5.8 mph - N/A   Mostly Cloudy
8:33 AM 8.6 °F -1.3 °F 6.8 °F 92% 30.31 in 10.0 mi North 5.8 mph - N/A   Scattered Clouds
8:53 AM 10.4 °F 4.0 °F 5.0 °F 79% 30.32 in 10.0 mi WNW 3.5 mph - N/A   Clear
9:14 AM 10.4 °F 4.0 °F 6.8 °F 85% 30.32 in 10.0 mi NW 3.5 mph - N/A   Mostly Cloudy
9:33 AM 12.2 °F - 6.8 °F 79% 30.31 in 10.0 mi Calm Calm - N/A   Overcast
9:53 AM 12.2 °F - 8.6 °F 85% 30.31 in 10.0 mi Calm Calm - N/A   Overcast
10:13 AM 15.8 °F - 8.6 °F 73% 30.31 in 10.0 mi Calm Calm - N/A   Overcast
10:33 AM 15.8 °F - 8.6 °F 73% 30.30 in 10.0 mi Calm Calm - N/A   Overcast
10:54 AM 17.6 °F - 10.4 °F 73% 30.30 in 10.0 mi Calm Calm - N/A   Overcast
11:13 AM 17.6 °F - 10.4 °F 73% 30.30 in 10.0 mi Calm Calm - N/A   Overcast
11:33 AM 19.4 °F 14.3 °F 12.2 °F 74% 30.30 in 10.0 mi WSW 3.5 mph - N/A   Overcast
11:53 AM 21.2 °F 14.9 °F 10.4 °F 63% 30.30 in 10.0 mi West 4.6 mph - N/A   Overcast
12:13 PM 21.2 °F 13.6 °F 12.2 °F 68% 30.30 in 10.0 mi West 5.8 mph - N/A   Overcast
12:33 PM 21.2 °F 13.6 °F 12.2 °F 68% 30.29 in 10.0 mi West 5.8 mph - N/A   Overcast
12:53 PM 21.2 °F 12.6 °F 12.2 °F 68% 30.28 in 10.0 mi West 6.9 mph - N/A   Overcast
1:13 PM 23.0 °F 14.7 °F 14.0 °F 68% 30.28 in 10.0 mi WSW 6.9 mph - N/A   Overcast
1:33 PM 23.0 °F 14.7 °F 14.0 °F 68% 30.27 in 10.0 mi WSW 6.9 mph - N/A   Mostly Cloudy
1:53 PM 23.0 °F 15.8 °F 14.0 °F 68% 30.26 in 10.0 mi WSW 5.8 mph - N/A   Scattered Clouds
2:13 PM 23.0 °F 14.7 °F 14.0 °F 68% 30.25 in 10.0 mi WSW 6.9 mph - N/A   Clear
2:33 PM 24.8 °F 16.9 °F 14.0 °F 64% 30.25 in 10.0 mi SW 6.9 mph - N/A   Clear
2:54 PM 24.8 °F 16.1 °F 15.8 °F 69% 30.24 in 10.0 mi WSW 8.1 mph - N/A   Clear
3:13 PM 24.8 °F 16.1 °F 15.8 °F 69% 30.23 in 10.0 mi WSW 8.1 mph - N/A   Clear
3:33 PM 24.8 °F 15.3 °F 15.8 °F 69% 30.24 in 10.0 mi WSW 9.2 mph - N/A   Clear
3:53 PM 24.8 °F 16.9 °F 15.8 °F 69% 30.23 in 10.0 mi WSW 6.9 mph - N/A   Clear
4:13 PM 24.8 °F 16.1 °F 15.8 °F 69% 30.22 in 10.0 mi SSW 8.1 mph - N/A   Clear
4:34 PM 24.8 °F 15.3 °F 15.8 °F 69% 30.22 in 10.0 mi SW 9.2 mph - N/A   Clear
4:53 PM 24.8 °F 15.3 °F 17.6 °F 74% 30.22 in 10.0 mi SW 9.2 mph - N/A   Clear
5:13 PM 21.2 °F 10.1 °F 17.6 °F 86% 30.22 in 10.0 mi SW 10.4 mph - N/A   Clear
5:33 PM 21.2 °F 10.9 °F 17.6 °F 86% 30.21 in 10.0 mi SW 9.2 mph - N/A   Clear
5:53 PM 21.2 °F 10.9 °F 15.8 °F 80% 30.20 in 10.0 mi SSW 9.2 mph - N/A   Clear
6:13 PM 19.4 °F 10.4 °F 15.8 °F 86% 30.20 in 10.0 mi SSW 6.9 mph - N/A   Clear
6:33 PM 17.6 °F 7.3 °F 15.8 °F 93% 30.20 in 10.0 mi SSW 8.1 mph - N/A   Clear
6:54 PM 17.6 °F 6.4 °F 15.8 °F 93% 30.18 in 10.0 mi SSW 9.2 mph - N/A   Clear
7:13 PM 17.6 °F 6.4 °F 14.0 °F 86% 30.17 in 10.0 mi South 9.2 mph - N/A   Clear
7:33 PM 15.8 °F 8.6 °F 12.2 °F 86% 30.16 in 10.0 mi South 4.6 mph - N/A   Clear
7:53 PM 17.6 °F 10.7 °F 14.0 °F 86% 30.16 in 10.0 mi South 4.6 mph - N/A   Clear
8:13 PM 15.8 °F 7.2 °F 12.2 °F 86% 30.16 in 10.0 mi South 5.8 mph - N/A   Clear
8:33 PM 15.8 °F 5.1 °F 12.2 °F 86% 30.15 in 10.0 mi South 8.1 mph - N/A   Clear
8:53 PM 15.8 °F 5.1 °F 12.2 °F 86% 30.15 in 10.0 mi South 8.1 mph - N/A   Clear
9:13 PM 15.8 °F 4.2 °F 14.0 °F 93% 30.13 in 10.0 mi South 9.2 mph - N/A   Clear
9:33 PM 15.8 °F 4.2 °F 14.0 °F 93% 30.13 in 10.0 mi South 9.2 mph - N/A   Clear
9:53 PM 15.8 °F 3.4 °F 12.2 °F 86% 30.12 in 10.0 mi South 10.4 mph - N/A   Clear
10:13 PM 15.8 °F 6.1 °F 12.2 °F 86% 30.11 in 10.0 mi South 6.9 mph - N/A   Clear
10:33 PM 15.8 °F 3.4 °F 12.2 °F 86% 30.11 in 10.0 mi South 10.4 mph - N/A   Clear
10:53 PM 15.8 °F 2.7 °F 12.2 °F 86% 30.10 in 10.0 mi South 11.5 mph - N/A   Clear
11:13 PM 15.8 °F 3.4 °F 12.2 °F 86% 30.07 in 10.0 mi South 10.4 mph - N/A   Clear
11:33 PM 15.8 °F 2.1 °F 14.0 °F 93% 30.05 in 10.0 mi South 12.7 mph - N/A   Clear
11:53 PM 17.6 °F 2.7 °F 14.0 °F 86% 30.04 in 10.0 mi South 16.1 mph - N/A   Clear